Weather History for Denver, CO

Change the Weather History Date:

Sunday, February 17, 2013

  Actual Average Record
Temperature  
Mean Temperature 45 °F 33 °F  
Max Temperature 63 °F 46 °F 72 °F (1970)
Min Temperature 26 °F 19 °F -10 °F (2006)
Degree Days  
Heating Degree Days 20 32  
Month to date heating degree days 516 570  
Since 1 July heating degree days 3816 4101  
Cooling Degree Days 0 0  
Month to date cooling degree days 0 0  
Year to date cooling degree days 0 0  
Moisture  
Dew Point -1 °F    
Average Humidity 34    
Maximum Humidity 63    
Minimum Humidity 4    
Precipitation  
Precipitation 0.00 in 0.01 in 0.72 in (1962)
Month to date precipitation 0.02 0.21  
Year to date precipitation 0.33 0.62  
Snow  
Snow 0.00 in - - ()
Month to date snowfall T  
Since 1 July snowfall 17  
Snow Depth 0.00 in    
Sea Level Pressure  
Sea Level Pressure 29.65 in    
Wind  
Wind Speed 16 mph (SW)    
Max Wind Speed 32 mph    
Max Gust Speed 39 mph    
Visibility 10 miles    
Events      
T = Trace of Precipitation, MM = Missing Value Source: NWS Daily Summary

Daily Weather History Graph

Daily Weather History Graph

Search for Another Location

Airport:

Trip Planner

Search our weather history database for the weather conditions in past years. The results will help you decide how hot, cold, wet, or windy it might be!

Date:

Astronomy

Feb. 17, 2013 Rise Set
Actual Time 6:48 AM MST 5:37 PM MST
Civil Twilight 6:20 AM MST 6:05 PM MST
Nautical Twilight 5:49 AM MST 6:36 PM MST
Astronomical Twilight 5:17 AM MST 7:07 PM MST
Moon 10:43 AM MST (2/17) 12:34 AM MST (2/17)
Length of Visible Light 11h 44m
Length of Day
10h 49m
Waxing Crescent, 49% of the Moon is Illuminated
Feb 17
Waxing Crescent
Feb 17
First Quarter
Feb 25
Full
Mar 4
Last Quarter
Mar 11
New

Hourly Weather History & Observations

Time (MST) Temp. Windchill Dew Point Humidity Pressure Visibility Wind Dir Wind Speed Gust Speed Precip Events Conditions
12:53 AM 28.9 °F 20.4 °F 5.0 °F 36% 29.88 in 10.0 mi South 9.2 mph - N/A   Mostly Cloudy
1:53 AM 35.1 °F 26.9 °F 5.0 °F 28% 29.86 in 10.0 mi SSW 11.5 mph - N/A   Mostly Cloudy
2:53 AM 30.0 °F 21.1 °F 5.0 °F 35% 29.84 in 10.0 mi South 10.4 mph - N/A   Overcast
3:53 AM 35.1 °F 31.0 °F 3.9 °F 27% 29.80 in 10.0 mi SW 4.6 mph - N/A   Overcast
4:53 AM 36.0 °F 28.0 °F 3.0 °F 25% 29.78 in 10.0 mi SSW 11.5 mph - N/A   Overcast
5:53 AM 37.0 °F 27.7 °F 1.9 °F 23% 29.77 in 10.0 mi SSW 16.1 mph 23.0 mph N/A   Mostly Cloudy
6:53 AM 35.1 °F 26.4 °F -0.0 °F 23% 29.78 in 10.0 mi SSW 12.7 mph - N/A   Mostly Cloudy
7:53 AM 41.0 °F 32.2 °F -2.9 °F 16% 29.75 in 10.0 mi SSW 18.4 mph - N/A   Mostly Cloudy
8:53 AM 44.1 °F 36.2 °F -4.0 °F 13% 29.72 in 10.0 mi SSW 18.4 mph - N/A   Mostly Cloudy
9:53 AM 52.0 °F - -8.0 °F 8% 29.65 in 10.0 mi South 21.9 mph 27.6 mph N/A   Mostly Cloudy
10:53 AM 57.0 °F - -14.1 °F 5% 29.59 in 10.0 mi South 19.6 mph - N/A   Mostly Cloudy
11:53 AM 59.0 °F - -18.9 °F 4% 29.56 in 10.0 mi SW 13.8 mph 19.6 mph N/A   Mostly Cloudy
12:53 PM 62.1 °F - -17.0 °F 4% 29.52 in 10.0 mi WNW 12.7 mph - N/A   Mostly Cloudy
1:53 PM 61.0 °F - -17.0 °F 4% 29.47 in 10.0 mi NNE 5.8 mph - N/A   Mostly Cloudy
2:53 PM 60.1 °F - -16.1 °F 4% 29.47 in 10.0 mi West 13.8 mph - N/A   Mostly Cloudy
3:53 PM 61.0 °F - -9.9 °F 5% 29.44 in 10.0 mi NW 15.0 mph 21.9 mph N/A   Mostly Cloudy
4:53 PM 55.9 °F - -8.0 °F 7% 29.45 in 10.0 mi NW 20.7 mph 31.1 mph N/A   Mostly Cloudy
5:53 PM 46.0 °F 40.6 °F -5.1 °F 12% 29.49 in 10.0 mi North 11.5 mph - N/A   Mostly Cloudy
6:53 PM 39.0 °F 32.8 °F -2.0 °F 18% 29.57 in 10.0 mi NE 9.2 mph - N/A   Scattered Clouds
7:53 PM 37.0 °F 26.2 °F 12.9 °F 37% 29.59 in 10.0 mi NE 21.9 mph 28.8 mph N/A   Scattered Clouds
8:53 PM 35.1 °F 22.7 °F 12.0 °F 39% 29.61 in 10.0 mi NNE 25.3 mph 34.5 mph N/A   Scattered Clouds
10:53 PM 30.0 °F 16.6 °F 19.9 °F 66% 29.65 in 10.0 mi NNE 23.0 mph 29.9 mph N/A   Mostly Cloudy
11:53 PM 28.0 °F 16.1 °F 17.1 °F 63% 29.68 in 10.0 mi NE 16.1 mph - N/A   Mostly Cloudy